owner,sensor,date,latitude,longitude,sea_surface_height_above_sea_level,qcFlag 
TCOON,ioos:station:TCOON:524:1,2013-12-09T14:54:00Z,29.8672,-93.9310,1.607,1111122 
TCOON,ioos:station:TCOON:524:1,2013-12-09T15:24:00Z,29.8672,-93.9310,1.659,1111122 
TCOON,ioos:station:TCOON:524:1,2013-12-09T16:48:00Z,29.8672,-93.9310,1.635,1111122 
TCOON,ioos:station:TCOON:524:1,2013-12-09T17:24:00Z,29.8672,-93.9310,1.652,1111122 
TCOON,ioos:station:TCOON:524:1,2013-12-09T18:24:00Z,29.8672,-93.9310,1.619,1111122 
TCOON,ioos:station:TCOON:524:1,2013-12-09T19:24:00Z,29.8672,-93.9310,1.625,1111122 
TCOON,ioos:station:TCOON:524:1,2013-12-09T20:24:00Z,29.8672,-93.9310,1.459,1111122 
TCOON,ioos:station:TCOON:524:1,2013-12-09T21:24:00Z,29.8672,-93.9310,1.493,1111122 
TCOON,ioos:station:TCOON:524:1,2013-12-09T22:24:00Z,29.8672,-93.9310,1.543,1111122 
TCOON,ioos:station:TCOON:524:1,2013-12-09T23:24:00Z,29.8672,-93.9310,1.566,1111122 
TCOON,ioos:station:TCOON:524:1,2013-12-10T00:24:00Z,29.8672,-93.9310,1.561,1111122 
TCOON,ioos:station:TCOON:524:1,2013-12-10T01:24:00Z,29.8672,-93.9310,1.579,1111122 
TCOON,ioos:station:TCOON:524:1,2013-12-10T02:24:00Z,29.8672,-93.9310,1.632,1111122 
TCOON,ioos:station:TCOON:524:1,2013-12-10T03:24:00Z,29.8672,-93.9310,1.634,1111122 
TCOON,ioos:station:TCOON:524:1,2013-12-10T04:24:00Z,29.8672,-93.9310,1.649,1111122 
TCOON,ioos:station:TCOON:524:1,2013-12-10T09:24:00Z,29.8672,-93.9310,1.369,1111122 
TCOON,ioos:station:TCOON:524:1,2013-12-10T10:54:00Z,29.8672,-93.9310,1.298,1111122 
TCOON,ioos:station:TCOON:524:1,2013-12-10T12:24:00Z,29.8672,-93.9310,1.265,1111122 
TCOON,ioos:station:TCOON:524:1,2013-12-10T20:24:00Z,29.8672,-93.9310,1.438,1111122 
TCOON,ioos:station:TCOON:524:1,2013-12-11T01:54:00Z,29.8672,-93.9310,1.441,1111122 
TCOON,ioos:station:TCOON:524:1,2013-12-11T17:54:00Z,29.8672,-93.9310,1.564,1111122 
TCOON,ioos:station:TCOON:524:1,2013-12-11T19:24:00Z,29.8672,-93.9310,1.616,1111122 
TCOON,ioos:station:TCOON:524:1,2013-12-11T21:24:00Z,29.8672,-93.9310,1.654,1111122 
TCOON,ioos:station:TCOON:524:1,2013-12-12T11:24:00Z,29.8672,-93.9310,1.338,1111122 
TCOON,ioos:station:TCOON:524:1,2013-12-12T15:24:00Z,29.8672,-93.9310,1.317,1111122 
TCOON,ioos:station:TCOON:524:1,2013-12-12T16:24:00Z,29.8672,-93.9310,1.331,1111122 
TCOON,ioos:station:TCOON:524:1,2013-12-12T17:24:00Z,29.8672,-93.9310,1.388,1111122 
TCOON,ioos:station:TCOON:524:1,2013-12-12T19:24:00Z,29.8672,-93.9310,1.493,1111122 
TCOON,ioos:station:TCOON:524:1,2013-12-12T21:24:00Z,29.8672,-93.9310,1.519,1111122 
TCOON,ioos:station:TCOON:524:1,2013-12-12T22:24:00Z,29.8672,-93.9310,1.548,1111122 
TCOON,ioos:station:TCOON:524:1,2013-12-12T22:54:00Z,29.8672,-93.9310,1.554,1111122 
TCOON,ioos:station:TCOON:524:1,2013-12-12T23:54:00Z,29.8672,-93.9310,1.529,1111122 
TCOON,ioos:station:TCOON:524:1,2013-12-13T00:54:00Z,29.8672,-93.9310,1.563,1111122 
TCOON,ioos:station:TCOON:524:1,2013-12-13T01:54:00Z,29.8672,-93.9310,1.562,1111122 
TCOON,ioos:station:TCOON:524:1,2013-12-13T02:54:00Z,29.8672,-93.9310,1.567,1111122 
TCOON,ioos:station:TCOON:524:1,2013-12-13T03:54:00Z,29.8672,-93.9310,1.553,1111122 
TCOON,ioos:station:TCOON:524:1,2013-12-13T04:54:00Z,29.8672,-93.9310,1.578,1111122 
TCOON,ioos:station:TCOON:524:1,2013-12-13T06:18:00Z,29.8672,-93.9310,1.641,1111122 
TCOON,ioos:station:TCOON:524:1,2013-12-13T06:48:00Z,29.8672,-93.9310,1.666,1111122 
TCOON,ioos:station:TCOON:524:1,2013-12-13T07:18:00Z,29.8672,-93.9310,1.674,1111122 
TCOON,ioos:station:TCOON:524:1,2013-12-13T07:48:00Z,29.8672,-93.9310,1.664,1111122 
TCOON,ioos:station:TCOON:524:1,2013-12-13T08:18:00Z,29.8672,-93.9310,1.672,1111122 
TCOON,ioos:station:TCOON:524:1,2013-12-13T08:48:00Z,29.8672,-93.9310,1.684,1111122 
TCOON,ioos:station:TCOON:524:1,2013-12-13T09:18:00Z,29.8672,-93.9310,1.658,1111122 
TCOON,ioos:station:TCOON:524:1,2013-12-13T09:48:00Z,29.8672,-93.9310,1.654,1111122 
TCOON,ioos:station:TCOON:524:1,2013-12-13T10:18:00Z,29.8672,-93.9310,1.641,1111122 
TCOON,ioos:station:TCOON:524:1,2013-12-13T10:48:00Z,29.8672,-93.9310,1.612,1111122 
TCOON,ioos:station:TCOON:524:1,2013-12-13T11:18:00Z,29.8672,-93.9310,1.572,1111122 
TCOON,ioos:station:TCOON:524:1,2013-12-13T11:48:00Z,29.8672,-93.9310,1.53,1111122 
TCOON,ioos:station:TCOON:524:1,2013-12-13T12:18:00Z,29.8672,-93.9310,1.496,1111122 
TCOON,ioos:station:TCOON:524:1,2013-12-13T12:48:00Z,29.8672,-93.9310,1.475,1111122 
TCOON,ioos:station:TCOON:524:1,2013-12-13T13:24:00Z,29.8672,-93.9310,1.444,1111122 
TCOON,ioos:station:TCOON:524:1,2013-12-13T13:48:00Z,29.8672,-93.9310,1.424,1111122 
TCOON,ioos:station:TCOON:524:1,2013-12-13T14:24:00Z,29.8672,-93.9310,1.435,1111122 
TCOON,ioos:station:TCOON:524:1,2013-12-13T14:48:00Z,29.8672,-93.9310,1.438,1111122 
TCOON,ioos:station:TCOON:524:1,2013-12-13T15:18:00Z,29.8672,-93.9310,1.458,1111122 
TCOON,ioos:station:TCOON:524:1,2013-12-13T16:48:00Z,29.8672,-93.9310,1.514,1111122 
TCOON,ioos:station:TCOON:524:1,2013-12-13T17:06:00Z,29.8672,-93.9310,1.559,1111122 
TCOON,ioos:station:TCOON:524:1,2013-12-13T17:36:00Z,29.8672,-93.9310,1.563,1111122 
TCOON,ioos:station:TCOON:524:1,2013-12-13T18:06:00Z,29.8672,-93.9310,1.613,1111122 
TCOON,ioos:station:TCOON:524:1,2013-12-13T18:36:00Z,29.8672,-93.9310,1.664,1111122 
TCOON,ioos:station:TCOON:524:1,2013-12-13T19:06:00Z,29.8672,-93.9310,1.667,1111122 
TCOON,ioos:station:TCOON:524:1,2013-12-13T19:36:00Z,29.8672,-93.9310,1.704,1111122 
TCOON,ioos:station:TCOON:524:1,2013-12-13T20:06:00Z,29.8672,-93.9310,1.736,1111122 
TCOON,ioos:station:TCOON:524:1,2013-12-13T20:36:00Z,29.8672,-93.9310,1.691,1111122 
TCOON,ioos:station:TCOON:524:1,2013-12-13T21:06:00Z,29.8672,-93.9310,1.733,1111122 
TCOON,ioos:station:TCOON:524:1,2013-12-13T21:36:00Z,29.8672,-93.9310,1.768,1111122 
TCOON,ioos:station:TCOON:524:1,2013-12-13T22:06:00Z,29.8672,-93.9310,1.785,1111122 
TCOON,ioos:station:TCOON:524:1,2013-12-13T22:36:00Z,29.8672,-93.9310,1.791,1111122 
TCOON,ioos:station:TCOON:524:1,2013-12-13T23:06:00Z,29.8672,-93.9310,1.79,1111122 
TCOON,ioos:station:TCOON:524:1,2013-12-13T23:36:00Z,29.8672,-93.9310,1.798,1111122 
TCOON,ioos:station:TCOON:524:1,2013-12-14T00:06:00Z,29.8672,-93.9310,1.81,1111122 
TCOON,ioos:station:TCOON:524:1,2013-12-14T00:36:00Z,29.8672,-93.9310,1.814,1111122 
TCOON,ioos:station:TCOON:524:1,2013-12-14T01:06:00Z,29.8672,-93.9310,1.812,1111122 
TCOON,ioos:station:TCOON:524:1,2013-12-14T01:36:00Z,29.8672,-93.9310,1.818,1111122 
TCOON,ioos:station:TCOON:524:1,2013-12-14T02:06:00Z,29.8672,-93.9310,1.751,1111122 
TCOON,ioos:station:TCOON:524:1,2013-12-14T02:36:00Z,29.8672,-93.9310,1.816,1111122 
TCOON,ioos:station:TCOON:524:1,2013-12-14T03:06:00Z,29.8672,-93.9310,1.814,1111122 
TCOON,ioos:station:TCOON:524:1,2013-12-14T03:36:00Z,29.8672,-93.9310,1.809,1111122 
TCOON,ioos:station:TCOON:524:1,2013-12-14T04:06:00Z,29.8672,-93.9310,1.828,1111122 
TCOON,ioos:station:TCOON:524:1,2013-12-14T04:36:00Z,29.8672,-93.9310,1.842,1111122 
TCOON,ioos:station:TCOON:524:1,2013-12-14T05:06:00Z,29.8672,-93.9310,1.863,1111122 
TCOON,ioos:station:TCOON:524:1,2013-12-14T06:06:00Z,29.8672,-93.9310,1.88,1111122 
TCOON,ioos:station:TCOON:524:1,2013-12-14T06:36:00Z,29.8672,-93.9310,1.878,1111122 
TCOON,ioos:station:TCOON:524:1,2013-12-14T07:06:00Z,29.8672,-93.9310,1.855,1111122 
TCOON,ioos:station:TCOON:524:1,2013-12-14T07:36:00Z,29.8672,-93.9310,1.853,1111122 
TCOON,ioos:station:TCOON:524:1,2013-12-14T08:06:00Z,29.8672,-93.9310,1.869,1111122 
TCOON,ioos:station:TCOON:524:1,2013-12-14T08:36:00Z,29.8672,-93.9310,1.837,1111122 
TCOON,ioos:station:TCOON:524:1,2013-12-14T09:06:00Z,29.8672,-93.9310,1.837,1111122 
TCOON,ioos:station:TCOON:524:1,2013-12-14T09:36:00Z,29.8672,-93.9310,1.806,1111122 
TCOON,ioos:station:TCOON:524:1,2013-12-14T10:06:00Z,29.8672,-93.9310,1.751,1111122 
TCOON,ioos:station:TCOON:524:1,2013-12-14T10:36:00Z,29.8672,-93.9310,1.728,1111122 
TCOON,ioos:station:TCOON:524:1,2013-12-14T11:06:00Z,29.8672,-93.9310,1.667,1111122 
TCOON,ioos:station:TCOON:524:1,2013-12-14T11:36:00Z,29.8672,-93.9310,1.636,1111122 
TCOON,ioos:station:TCOON:524:1,2013-12-14T12:06:00Z,29.8672,-93.9310,1.607,1111122 
TCOON,ioos:station:TCOON:524:1,2013-12-14T12:36:00Z,29.8672,-93.9310,1.579,1111122 
TCOON,ioos:station:TCOON:524:1,2013-12-14T13:06:00Z,29.8672,-93.9310,1.549,1111122 
TCOON,ioos:station:TCOON:524:1,2013-12-14T13:36:00Z,29.8672,-93.9310,1.523,1111122 
TCOON,ioos:station:TCOON:524:1,2013-12-14T14:06:00Z,29.8672,-93.9310,1.496,1111122 
TCOON,ioos:station:TCOON:524:1,2013-12-14T14:36:00Z,29.8672,-93.9310,1.488,1111122 
TCOON,ioos:station:TCOON:524:1,2013-12-14T15:06:00Z,29.8672,-93.9310,1.459,1111122 
TCOON,ioos:station:TCOON:524:1,2013-12-14T15:36:00Z,29.8672,-93.9310,1.472,1111122 
TCOON,ioos:station:TCOON:524:1,2013-12-14T16:06:00Z,29.8672,-93.9310,1.479,1111122 
TCOON,ioos:station:TCOON:524:1,2013-12-14T16:36:00Z,29.8672,-93.9310,1.501,1111122 
TCOON,ioos:station:TCOON:524:1,2013-12-14T17:06:00Z,29.8672,-93.9310,1.511,1111122 
TCOON,ioos:station:TCOON:524:1,2013-12-14T17:36:00Z,29.8672,-93.9310,1.549,1111122 
TCOON,ioos:station:TCOON:524:1,2013-12-14T18:06:00Z,29.8672,-93.9310,1.556,1111122 
TCOON,ioos:station:TCOON:524:1,2013-12-14T18:36:00Z,29.8672,-93.9310,1.569,1111122 
TCOON,ioos:station:TCOON:524:1,2013-12-14T19:06:00Z,29.8672,-93.9310,1.582,1111122 
TCOON,ioos:station:TCOON:524:1,2013-12-14T19:36:00Z,29.8672,-93.9310,1.577,1111122 
TCOON,ioos:station:TCOON:524:1,2013-12-14T20:12:00Z,29.8672,-93.9310,1.625,1111122 
TCOON,ioos:station:TCOON:524:1,2013-12-14T20:36:00Z,29.8672,-93.9310,1.649,1111122 
TCOON,ioos:station:TCOON:524:1,2013-12-14T21:12:00Z,29.8672,-93.9310,1.661,1111122 
TCOON,ioos:station:TCOON:524:1,2013-12-14T21:42:00Z,29.8672,-93.9310,1.661,1111122 
TCOON,ioos:station:TCOON:524:1,2013-12-14T22:06:00Z,29.8672,-93.9310,1.672,1111122 
TCOON,ioos:station:TCOON:524:1,2013-12-14T22:42:00Z,29.8672,-93.9310,1.651,1111122 
TCOON,ioos:station:TCOON:524:1,2013-12-14T23:12:00Z,29.8672,-93.9310,1.615,1111122 
TCOON,ioos:station:TCOON:524:1,2013-12-14T23:42:00Z,29.8672,-93.9310,1.59,1111122 
TCOON,ioos:station:TCOON:524:1,2013-12-15T00:12:00Z,29.8672,-93.9310,1.595,1111122 
TCOON,ioos:station:TCOON:524:1,2013-12-15T00:42:00Z,29.8672,-93.9310,1.502,1111122 
TCOON,ioos:station:TCOON:524:1,2013-12-15T01:12:00Z,29.8672,-93.9310,1.445,1111122 
TCOON,ioos:station:TCOON:524:1,2013-12-15T01:42:00Z,29.8672,-93.9310,1.433,1111122 
TCOON,ioos:station:TCOON:524:1,2013-12-15T02:12:00Z,29.8672,-93.9310,1.359,1111122 
TCOON,ioos:station:TCOON:524:1,2013-12-15T02:42:00Z,29.8672,-93.9310,1.387,1111122 
TCOON,ioos:station:TCOON:524:1,2013-12-15T03:06:00Z,29.8672,-93.9310,1.38,1111122 
TCOON,ioos:station:TCOON:524:1,2013-12-15T03:42:00Z,29.8672,-93.9310,1.346,1111122 
TCOON,ioos:station:TCOON:524:1,2013-12-15T04:12:00Z,29.8672,-93.9310,1.359,1111122 
TCOON,ioos:station:TCOON:524:1,2013-12-15T04:42:00Z,29.8672,-93.9310,1.347,1111122 
TCOON,ioos:station:TCOON:524:1,2013-12-15T05:12:00Z,29.8672,-93.9310,1.359,1111122 
TCOON,ioos:station:TCOON:524:1,2013-12-15T05:42:00Z,29.8672,-93.9310,1.382,1111122 
TCOON,ioos:station:TCOON:524:1,2013-12-15T06:12:00Z,29.8672,-93.9310,1.391,1111122 
TCOON,ioos:station:TCOON:524:1,2013-12-15T06:42:00Z,29.8672,-93.9310,1.384,1111122 
TCOON,ioos:station:TCOON:524:1,2013-12-15T07:12:00Z,29.8672,-93.9310,1.39,1111122 
TCOON,ioos:station:TCOON:524:1,2013-12-15T07:42:00Z,29.8672,-93.9310,1.409,1111122 
TCOON,ioos:station:TCOON:524:1,2013-12-15T08:12:00Z,29.8672,-93.9310,1.379,1111122 
TCOON,ioos:station:TCOON:524:1,2013-12-15T08:42:00Z,29.8672,-93.9310,1.359,1111122 
TCOON,ioos:station:TCOON:524:1,2013-12-15T09:12:00Z,29.8672,-93.9310,1.401,1111122 
TCOON,ioos:station:TCOON:524:1,2013-12-15T09:42:00Z,29.8672,-93.9310,1.328,1111122 
TCOON,ioos:station:TCOON:524:1,2013-12-15T10:12:00Z,29.8672,-93.9310,1.302,1111122 
TCOON,ioos:station:TCOON:524:1,2013-12-15T10:42:00Z,29.8672,-93.9310,1.296,1111122 
TCOON,ioos:station:TCOON:524:1,2013-12-15T11:12:00Z,29.8672,-93.9310,1.245,1111122 
TCOON,ioos:station:TCOON:524:1,2013-12-15T11:42:00Z,29.8672,-93.9310,1.219,1111122 
TCOON,ioos:station:TCOON:524:1,2013-12-15T12:12:00Z,29.8672,-93.9310,1.186,1111122 
TCOON,ioos:station:TCOON:524:1,2013-12-15T12:42:00Z,29.8672,-93.9310,1.133,1111122 
TCOON,ioos:station:TCOON:524:1,2013-12-15T13:12:00Z,29.8672,-93.9310,1.105,1111122 
TCOON,ioos:station:TCOON:524:1,2013-12-15T13:42:00Z,29.8672,-93.9310,1.068,1111122 
TCOON,ioos:station:TCOON:524:1,2013-12-15T14:12:00Z,29.8672,-93.9310,1.032,1111122 
TCOON,ioos:station:TCOON:524:1,2013-12-15T14:42:00Z,29.8672,-93.9310,1.064,1111122 
TCOON,ioos:station:TCOON:524:1,2013-12-15T15:12:00Z,29.8672,-93.9310,1.023,1111122 
TCOON,ioos:station:TCOON:524:1,2013-12-15T15:48:00Z,29.8672,-93.9310,0.952,1111122 
TCOON,ioos:station:TCOON:524:1,2013-12-15T16:12:00Z,29.8672,-93.9310,0.974,1111122 
TCOON,ioos:station:TCOON:524:1,2013-12-15T16:42:00Z,29.8672,-93.9310,0.99,1111122 
TCOON,ioos:station:TCOON:524:1,2013-12-15T17:12:00Z,29.8672,-93.9310,1.06,1111122 
TCOON,ioos:station:TCOON:524:1,2013-12-15T17:42:00Z,29.8672,-93.9310,1.098,1111122 
TCOON,ioos:station:TCOON:524:1,2013-12-15T18:12:00Z,29.8672,-93.9310,1.117,1111122 
TCOON,ioos:station:TCOON:524:1,2013-12-15T18:42:00Z,29.8672,-93.9310,1.128,1111122 
TCOON,ioos:station:TCOON:524:1,2013-12-15T19:12:00Z,29.8672,-93.9310,1.15,1111122 
TCOON,ioos:station:TCOON:524:1,2013-12-15T19:42:00Z,29.8672,-93.9310,1.191,1111122 
TCOON,ioos:station:TCOON:524:1,2013-12-15T20:12:00Z,29.8672,-93.9310,1.242,1111122 
TCOON,ioos:station:TCOON:524:1,2013-12-15T20:42:00Z,29.8672,-93.9310,1.28,1111122 
TCOON,ioos:station:TCOON:524:1,2013-12-15T21:18:00Z,29.8672,-93.9310,1.337,1111122 
TCOON,ioos:station:TCOON:524:1,2013-12-15T21:42:00Z,29.8672,-93.9310,1.423,1111122 
TCOON,ioos:station:TCOON:524:1,2013-12-15T22:12:00Z,29.8672,-93.9310,1.365,1111122 
TCOON,ioos:station:TCOON:524:1,2013-12-15T22:48:00Z,29.8672,-93.9310,1.401,1111122 
TCOON,ioos:station:TCOON:524:1,2013-12-15T23:12:00Z,29.8672,-93.9310,1.36,1111122 
TCOON,ioos:station:TCOON:524:1,2013-12-15T23:48:00Z,29.8672,-93.9310,1.271,1111122 
TCOON,ioos:station:TCOON:524:1,2013-12-16T00:18:00Z,29.8672,-93.9310,1.397,1111122 
TCOON,ioos:station:TCOON:524:1,2013-12-16T00:48:00Z,29.8672,-93.9310,1.42,1111122 
TCOON,ioos:station:TCOON:524:1,2013-12-16T01:18:00Z,29.8672,-93.9310,1.378,1111122 
TCOON,ioos:station:TCOON:524:1,2013-12-16T01:48:00Z,29.8672,-93.9310,1.398,1111122 
TCOON,ioos:station:TCOON:524:1,2013-12-16T02:18:00Z,29.8672,-93.9310,1.427,1111122 
TCOON,ioos:station:TCOON:524:1,2013-12-16T02:48:00Z,29.8672,-93.9310,1.437,1111122 
TCOON,ioos:station:TCOON:524:1,2013-12-16T03:18:00Z,29.8672,-93.9310,1.451,1111122 
TCOON,ioos:station:TCOON:524:1,2013-12-16T03:48:00Z,29.8672,-93.9310,1.456,1111122 
TCOON,ioos:station:TCOON:524:1,2013-12-16T04:18:00Z,29.8672,-93.9310,1.453,1111122 
TCOON,ioos:station:TCOON:524:1,2013-12-16T04:48:00Z,29.8672,-93.9310,1.445,1111122 
TCOON,ioos:station:TCOON:524:1,2013-12-16T05:18:00Z,29.8672,-93.9310,1.49,1111122 
TCOON,ioos:station:TCOON:524:1,2013-12-16T05:48:00Z,29.8672,-93.9310,1.487,1111122 
TCOON,ioos:station:TCOON:524:1,2013-12-16T06:18:00Z,29.8672,-93.9310,1.468,1111122 
TCOON,ioos:station:TCOON:524:1,2013-12-16T06:48:00Z,29.8672,-93.9310,1.514,1111122 
TCOON,ioos:station:TCOON:524:1,2013-12-16T07:18:00Z,29.8672,-93.9310,1.51,1111122 
TCOON,ioos:station:TCOON:524:1,2013-12-16T07:48:00Z,29.8672,-93.9310,1.566,1111122 
TCOON,ioos:station:TCOON:524:1,2013-12-16T08:18:00Z,29.8672,-93.9310,1.544,1111122 
TCOON,ioos:station:TCOON:524:1,2013-12-16T08:48:00Z,29.8672,-93.9310,1.566,1111122 
TCOON,ioos:station:TCOON:524:1,2013-12-16T09:18:00Z,29.8672,-93.9310,1.568,1111122 
TCOON,ioos:station:TCOON:524:1,2013-12-16T09:48:00Z,29.8672,-93.9310,1.562,1111122 
TCOON,ioos:station:TCOON:524:1,2013-12-16T10:18:00Z,29.8672,-93.9310,1.554,1111122 
TCOON,ioos:station:TCOON:524:1,2013-12-16T10:48:00Z,29.8672,-93.9310,1.547,1111122 
TCOON,ioos:station:TCOON:524:1,2013-12-16T11:18:00Z,29.8672,-93.9310,1.503,1111122 
TCOON,ioos:station:TCOON:524:1,2013-12-16T11:48:00Z,29.8672,-93.9310,1.475,1111122 
TCOON,ioos:station:TCOON:524:1,2013-12-16T12:18:00Z,29.8672,-93.9310,1.444,1111122 
TCOON,ioos:station:TCOON:524:1,2013-12-16T12:48:00Z,29.8672,-93.9310,1.39,1111122 
TCOON,ioos:station:TCOON:524:1,2013-12-16T13:18:00Z,29.8672,-93.9310,1.35,1111122 
TCOON,ioos:station:TCOON:524:1,2013-12-16T13:48:00Z,29.8672,-93.9310,1.305,1111122 
TCOON,ioos:station:TCOON:524:1,2013-12-16T14:18:00Z,29.8672,-93.9310,1.295,1111122 
TCOON,ioos:station:TCOON:524:1,2013-12-16T14:48:00Z,29.8672,-93.9310,1.236,1111122 
TCOON,ioos:station:TCOON:524:1,2013-12-16T15:18:00Z,29.8672,-93.9310,1.265,1111122 
TCOON,ioos:station:TCOON:524:1,2013-12-16T15:48:00Z,29.8672,-93.9310,1.213,1111122 
TCOON,ioos:station:TCOON:524:1,2013-12-16T16:18:00Z,29.8672,-93.9310,1.189,1111122 
TCOON,ioos:station:TCOON:524:1,2013-12-16T16:48:00Z,29.8672,-93.9310,1.208,1111122 
TCOON,ioos:station:TCOON:524:1,2013-12-16T17:18:00Z,29.8672,-93.9310,1.223,1111122 
TCOON,ioos:station:TCOON:524:1,2013-12-16T17:48:00Z,29.8672,-93.9310,1.265,1111122 
TCOON,ioos:station:TCOON:524:1,2013-12-16T18:18:00Z,29.8672,-93.9310,1.298,1111122 
TCOON,ioos:station:TCOON:524:1,2013-12-16T18:48:00Z,29.8672,-93.9310,1.309,1111122 
TCOON,ioos:station:TCOON:524:1,2013-12-16T19:18:00Z,29.8672,-93.9310,1.347,1111122 
TCOON,ioos:station:TCOON:524:1,2013-12-16T19:48:00Z,29.8672,-93.9310,1.364,1111122 
TCOON,ioos:station:TCOON:524:1,2013-12-16T20:18:00Z,29.8672,-93.9310,1.399,1111122 
TCOON,ioos:station:TCOON:524:1,2013-12-16T20:48:00Z,29.8672,-93.9310,1.43,1111122 
TCOON,ioos:station:TCOON:524:1,2013-12-16T21:18:00Z,29.8672,-93.9310,1.477,1111122 
TCOON,ioos:station:TCOON:524:1,2013-12-16T21:48:00Z,29.8672,-93.9310,1.513,1111122 
TCOON,ioos:station:TCOON:524:1,2013-12-16T22:18:00Z,29.8672,-93.9310,1.582,1111122 
TCOON,ioos:station:TCOON:524:1,2013-12-16T22:48:00Z,29.8672,-93.9310,1.56,1111122 
TCOON,ioos:station:TCOON:524:1,2013-12-16T23:18:00Z,29.8672,-93.9310,1.503,1111122 
TCOON,ioos:station:TCOON:524:1,2013-12-16T23:48:00Z,29.8672,-93.9310,1.558,1111122 
TCOON,ioos:station:TCOON:524:1,2013-12-17T00:18:00Z,29.8672,-93.9310,1.539,1111122 
TCOON,ioos:station:TCOON:524:1,2013-12-17T00:48:00Z,29.8672,-93.9310,1.564,1111122 
TCOON,ioos:station:TCOON:524:1,2013-12-17T01:18:00Z,29.8672,-93.9310,1.591,1111122 
TCOON,ioos:station:TCOON:524:1,2013-12-17T01:48:00Z,29.8672,-93.9310,1.596,1111122 
TCOON,ioos:station:TCOON:524:1,2013-12-17T02:18:00Z,29.8672,-93.9310,1.587,1111122 
TCOON,ioos:station:TCOON:524:1,2013-12-17T02:48:00Z,29.8672,-93.9310,1.632,1111122 
TCOON,ioos:station:TCOON:524:1,2013-12-17T03:18:00Z,29.8672,-93.9310,1.584,1111122 
TCOON,ioos:station:TCOON:524:1,2013-12-17T03:48:00Z,29.8672,-93.9310,1.616,1111122 
TCOON,ioos:station:TCOON:524:1,2013-12-17T04:18:00Z,29.8672,-93.9310,1.623,1111122 
TCOON,ioos:station:TCOON:524:1,2013-12-17T04:48:00Z,29.8672,-93.9310,1.629,1111122 
TCOON,ioos:station:TCOON:524:1,2013-12-17T05:18:00Z,29.8672,-93.9310,1.631,1111122 
TCOON,ioos:station:TCOON:524:1,2013-12-17T05:48:00Z,29.8672,-93.9310,1.632,1111122 
TCOON,ioos:station:TCOON:524:1,2013-12-17T06:18:00Z,29.8672,-93.9310,1.643,1111122 
TCOON,ioos:station:TCOON:524:1,2013-12-17T06:48:00Z,29.8672,-93.9310,1.658,1111122 
TCOON,ioos:station:TCOON:524:1,2013-12-17T07:18:00Z,29.8672,-93.9310,1.655,1111122 
TCOON,ioos:station:TCOON:524:1,2013-12-17T07:48:00Z,29.8672,-93.9310,1.666,1111122 
TCOON,ioos:station:TCOON:524:1,2013-12-17T08:18:00Z,29.8672,-93.9310,1.677,1111122 
TCOON,ioos:station:TCOON:524:1,2013-12-17T08:48:00Z,29.8672,-93.9310,1.654,1111122 
TCOON,ioos:station:TCOON:524:1,2013-12-17T09:18:00Z,29.8672,-93.9310,1.646,1111122 
TCOON,ioos:station:TCOON:524:1,2013-12-17T09:48:00Z,29.8672,-93.9310,1.62,1111122 
TCOON,ioos:station:TCOON:524:1,2013-12-17T10:18:00Z,29.8672,-93.9310,1.611,1111122 
TCOON,ioos:station:TCOON:524:1,2013-12-17T10:48:00Z,29.8672,-93.9310,1.582,1111122 
TCOON,ioos:station:TCOON:524:1,2013-12-17T11:18:00Z,29.8672,-93.9310,1.552,1111122 
TCOON,ioos:station:TCOON:524:1,2013-12-17T11:48:00Z,29.8672,-93.9310,1.519,1111122 
TCOON,ioos:station:TCOON:524:1,2013-12-17T12:18:00Z,29.8672,-93.9310,1.472,1111122 
TCOON,ioos:station:TCOON:524:1,2013-12-17T12:48:00Z,29.8672,-93.9310,1.422,1111122 
TCOON,ioos:station:TCOON:524:1,2013-12-17T13:18:00Z,29.8672,-93.9310,1.39,1111122 
TCOON,ioos:station:TCOON:524:1,2013-12-17T13:48:00Z,29.8672,-93.9310,1.347,1111122 
TCOON,ioos:station:TCOON:524:1,2013-12-17T14:18:00Z,29.8672,-93.9310,1.318,1111122 
TCOON,ioos:station:TCOON:524:1,2013-12-17T14:48:00Z,29.8672,-93.9310,1.281,1111122 
TCOON,ioos:station:TCOON:524:1,2013-12-17T15:18:00Z,29.8672,-93.9310,1.268,1111122 
TCOON,ioos:station:TCOON:524:1,2013-12-17T15:48:00Z,29.8672,-93.9310,1.258,1111122 
TCOON,ioos:station:TCOON:524:1,2013-12-17T16:24:00Z,29.8672,-93.9310,1.214,1111122 
TCOON,ioos:station:TCOON:524:1,2013-12-17T16:48:00Z,29.8672,-93.9310,1.235,1111122 
TCOON,ioos:station:TCOON:524:1,2013-12-17T17:18:00Z,29.8672,-93.9310,1.223,1111122 
TCOON,ioos:station:TCOON:524:1,2013-12-17T17:48:00Z,29.8672,-93.9310,1.241,1111122 
TCOON,ioos:station:TCOON:524:1,2013-12-17T18:18:00Z,29.8672,-93.9310,1.243,1111122 
TCOON,ioos:station:TCOON:524:1,2013-12-17T18:48:00Z,29.8672,-93.9310,1.292,1111122 
TCOON,ioos:station:TCOON:524:1,2013-12-17T19:24:00Z,29.8672,-93.9310,1.33,1111122 
TCOON,ioos:station:TCOON:524:1,2013-12-17T19:48:00Z,29.8672,-93.9310,1.334,1111122 
TCOON,ioos:station:TCOON:524:1,2013-12-17T20:24:00Z,29.8672,-93.9310,1.338,1111122 
TCOON,ioos:station:TCOON:524:1,2013-12-17T20:54:00Z,29.8672,-93.9310,1.4,1111122 
TCOON,ioos:station:TCOON:524:1,2013-12-17T21:48:00Z,29.8672,-93.9310,1.525,1111122 
TCOON,ioos:station:TCOON:524:1,2013-12-17T22:24:00Z,29.8672,-93.9310,1.528,1111122 
TCOON,ioos:station:TCOON:524:1,2013-12-17T23:24:00Z,29.8672,-93.9310,1.544,1111122 
TCOON,ioos:station:TCOON:524:1,2013-12-18T00:18:00Z,29.8672,-93.9310,1.554,1111122 
TCOON,ioos:station:TCOON:524:1,2013-12-18T00:48:00Z,29.8672,-93.9310,1.571,1111122 
TCOON,ioos:station:TCOON:524:1,2013-12-18T01:18:00Z,29.8672,-93.9310,1.573,1111122 
TCOON,ioos:station:TCOON:524:1,2013-12-18T01:48:00Z,29.8672,-93.9310,1.573,1111122 
TCOON,ioos:station:TCOON:524:1,2013-12-18T02:18:00Z,29.8672,-93.9310,1.584,1111122 
TCOON,ioos:station:TCOON:524:1,2013-12-18T02:48:00Z,29.8672,-93.9310,1.615,1111122 
TCOON,ioos:station:TCOON:524:1,2013-12-18T03:18:00Z,29.8672,-93.9310,1.506,1111122 
TCOON,ioos:station:TCOON:524:1,2013-12-18T03:48:00Z,29.8672,-93.9310,1.602,1111122 
TCOON,ioos:station:TCOON:524:1,2013-12-18T04:18:00Z,29.8672,-93.9310,1.587,1111122 
TCOON,ioos:station:TCOON:524:1,2013-12-18T04:48:00Z,29.8672,-93.9310,1.574,1111122 
TCOON,ioos:station:TCOON:524:1,2013-12-18T05:48:00Z,29.8672,-93.9310,1.592,1111122 
TCOON,ioos:station:TCOON:524:1,2013-12-18T06:18:00Z,29.8672,-93.9310,1.606,1111122 
TCOON,ioos:station:TCOON:524:1,2013-12-18T06:48:00Z,29.8672,-93.9310,1.585,1111122 
TCOON,ioos:station:TCOON:524:1,2013-12-18T07:18:00Z,29.8672,-93.9310,1.566,1111122 
TCOON,ioos:station:TCOON:524:1,2013-12-18T07:48:00Z,29.8672,-93.9310,1.566,1111122 
TCOON,ioos:station:TCOON:524:1,2013-12-18T08:18:00Z,29.8672,-93.9310,1.567,1111122 
TCOON,ioos:station:TCOON:524:1,2013-12-18T08:48:00Z,29.8672,-93.9310,1.559,1111122 
TCOON,ioos:station:TCOON:524:1,2013-12-18T09:18:00Z,29.8672,-93.9310,1.568,1111122 
TCOON,ioos:station:TCOON:524:1,2013-12-18T09:48:00Z,29.8672,-93.9310,1.561,1111122 
TCOON,ioos:station:TCOON:524:1,2013-12-18T10:18:00Z,29.8672,-93.9310,1.536,1111122 
TCOON,ioos:station:TCOON:524:1,2013-12-18T10:48:00Z,29.8672,-93.9310,1.528,1111122 
TCOON,ioos:station:TCOON:524:1,2013-12-18T11:18:00Z,29.8672,-93.9310,1.511,1111122 
TCOON,ioos:station:TCOON:524:1,2013-12-18T11:48:00Z,29.8672,-93.9310,1.47,1111122 
TCOON,ioos:station:TCOON:524:1,2013-12-18T12:18:00Z,29.8672,-93.9310,1.438,1111122 
TCOON,ioos:station:TCOON:524:1,2013-12-18T12:48:00Z,29.8672,-93.9310,1.404,1111122 
TCOON,ioos:station:TCOON:524:1,2013-12-18T13:18:00Z,29.8672,-93.9310,1.359,1111122 